Weather in Medina

Saudi Arabia     24°27′57″N   39°38′30″E
temp.,
°C
wind,
m/s
gust,
m/s
humid.,
%
clouds,
%
prec.,
mm/h
press.,
hPa
HPBL,
m
31 july, sat
sat3100:00+31w5718100 0.0 1004150
03:00+29w33215 0.0 100376
06:00+28wsw222249 0.0 100463
09:00+33w34165 0.0 1005853
12:00+38wsw8109100 0.0 10042618
15:00+38wsw111112100 0.0 10032708
18:00+35wsw101016100 0.0 10041634
21:00+31wsw61020100 0.0 1007352
1 august, sun
sun100:00+29sw5823100 0.0 1007221
03:00+28wsw462847 0.0 1006137
06:00+26sw23370 0.0 100792
09:00+30wsw55395 0.0 1008983
12:00+36wnw67161 0.0 10062549
15:00+39w88125 0.0 10033621
18:00+36wsw109235 0.0 10041928
21:00+32wsw811245 0.0 1006420
2 august, mon
mon200:00+31w47225 0.0 1006184
03:00+29wsw34215 0.0 1005105
06:00+27wsw46335 0.0 1006105
09:00+32w57210 0.0 1007910
12:00+38wnw67114 0.0 10052489
15:00+40w97100 0.0 10033958
18:00+38wsw87140 0.0 10033401
21:00+33wsw912270 0.0 1006475
3 august, tue
tue300:00+31wsw352610 0.0 1005106
03:00+29wsw583617 0.0 1006170
06:00+27wsw59525 0.0 1008254
09:00+33w66335 0.0 1008965
12:00+38wnw55165 0.0 10063066
15:00+40wsw751793 0.0 10044270
18:00+36w762275 0.0 10041090
21:00+33wsw893299 0.0 1008744
4 august, wed
wed400:00+30wsw10125028 0.0 1009408
03:00+28wsw810539 0.0 1009383
06:00+28w46539 0.0 1010144
09:00+33wnw46355 0.0 10111020
12:00+38wnw65205 0.0 10092453
15:00+40w43155 0.0 10063448
18:00+35wsw68265 0.4 1007672
21:00+33wnw793257 0.8 1010852